{"data":{"norad_id":64029,"epoch":"2026-09-20T22:52:38.122464Z","epoch_age_seconds":104381,"freshness":"FRESH","line1":"1 64029U 25102H   26263.95321901  .00005536  00000+0  19687-3 0  9992","line2":"2 64029  70.0026 339.6132 0004144 271.3520  88.7180 15.29579390 75316","mean_motion":15.2957939,"eccentricity":0.0004144,"inclination_deg":70.0026,"raan_deg":339.6132,"arg_perigee_deg":271.352,"mean_anomaly_deg":88.718,"bstar":0.00019687,"rev_number":7531,"period_min":94.14352791456,"perigee_km":474.22792827136,"apogee_km":479.90952277667,"semimajor_km":6855.205725524,"source":"CELESTRAK","updated_at":"2026-09-21T09:00:35.187241Z"}}